When you browse on this site, cookies collect data to enhance your experience and personalize the content and advertising you see.
Visit our Privacy Policy to learn more. By continuing to use the site, you agree to this use of cookies and data.
  • In Hungary
  • List of Countries
  • For 7 days
  • Water Temperature
  • Satellite Maps
  • Weather Map
  • News
  • Weather Widgets
  • user-avatar
    Login

    Hourly Weather Santa Gertrudis

    Today, 19 April, Friday

    Time Temperature Precipitation Wind Pressure Humidity
    00:00 +14°C° 0 mm 3 mps 570 mmHg 69%
    01:00 +13°C° 0 mm 3 mps 569 mmHg 64%
    02:00 +11°C° 0 mm 3 mps 569 mmHg 59%
    03:00 +11°C° 0 mm 3 mps 568 mmHg 57%
    04:00 +10°C° 0 mm 2 mps 568 mmHg 56%
    05:00 +9°C° 0 mm 2 mps 568 mmHg 54%
    06:00 +12°C° 0 mm 2 mps 569 mmHg 52%
    07:00 +13°C° 0 mm 2 mps 570 mmHg 49%
    08:00 +14°C° 0 mm 2 mps 571 mmHg 46%
    09:00 +17°C° 0 mm 3 mps 572 mmHg 41%
    10:00 +19°C° 0 mm 3 mps 572 mmHg 37%
    11:00 +21°C° 0 mm 3 mps 573 mmHg 33%
    12:00 +21°C° 0 mm 3 mps 573 mmHg 33%
    13:00 +21°C° 0 mm 3 mps 572 mmHg 33%
    14:00 +21°C° 0 mm 3 mps 572 mmHg 32%
    15:00 +21°C° 0.1 mm 3 mps 571 mmHg 35%
    16:00 +20°C° 0.1 mm 3 mps 571 mmHg 37%
    17:00 +19°C° 0.1 mm 3 mps 571 mmHg 40%
    18:00 +17°C° 0 mm 3 mps 571 mmHg 44%
    19:00 +16°C° 0 mm 3 mps 571 mmHg 48%
    20:00 +13°C° 0 mm 3 mps 571 mmHg 52%
    21:00 +14°C° 0 mm 2 mps 571 mmHg 54%
    22:00 +13°C° 0 mm 2 mps 571 mmHg 56%
    23:00 +12°C° 0 mm 1 mps 571 mmHg 58%

    Tomorrow, 20 April, Saturday

    Time Temperature Precipitation Wind Pressure Humidity
    00:00 +12°C° 0 mm 1 mps 570 mmHg 58%
    01:00 +12°C° 0 mm 1 mps 570 mmHg 59%
    02:00 +11°C° 0 mm 1 mps 569 mmHg 59%
    03:00 +11°C° 0 mm 1 mps 569 mmHg 58%
    04:00 +10°C° 0 mm 0 mps 569 mmHg 57%
    05:00 +10°C° 0 mm 0 mps 569 mmHg 56%
    06:00 +13°C° 0 mm 1 mps 571 mmHg 48%
    07:00 +15°C° 0 mm 1 mps 572 mmHg 40%
    08:00 +18°C° 0 mm 1 mps 573 mmHg 32%
    09:00 +20°C° 0 mm 1 mps 574 mmHg 30%
    10:00 +23°C° 0 mm 1 mps 575 mmHg 27%
    11:00 +25°C° 0 mm 1 mps 575 mmHg 25%
    12:00 +25°C° 0 mm 2 mps 575 mmHg 23%
    13:00 +26°C° 0 mm 2 mps 574 mmHg 21%
    14:00 +26°C° 0 mm 3 mps 574 mmHg 19%
    15:00 +25°C° 0 mm 3 mps 573 mmHg 20%
    16:00 +25°C° 0 mm 2 mps 573 mmHg 21%
    17:00 +24°C° 0 mm 2 mps 572 mmHg 22%
    18:00 +21°C° 0 mm 2 mps 572 mmHg 26%
    19:00 +20°C° 0 mm 1 mps 572 mmHg 30%
    20:00 +19°C° 0 mm 1 mps 572 mmHg 34%
    21:00 +18°C° 0 mm 1 mps 572 mmHg 37%
    22:00 +16°C° 0 mm 1 mps 571 mmHg 40%
    23:00 +15°C° 0 mm 0 mps 571 mmHg 42%

    Day after tomorrow, 21 April, Sunday

    Time Temperature Precipitation Wind Pressure Humidity
    00:00 +14°C° 0 mm 0 mps 571 mmHg 45%
    01:00 +15°C° 0 mm 1 mps 570 mmHg 47%
    02:00 +14°C° 0 mm 1 mps 570 mmHg 50%
    03:00 +14°C° 0 mm 1 mps 570 mmHg 53%
    04:00 +14°C° 0 mm 1 mps 570 mmHg 56%
    05:00 +14°C° 0 mm 1 mps 570 mmHg 59%
    06:00 +16°C° 0 mm 1 mps 571 mmHg 53%
    07:00 +19°C° 0 mm 1 mps 572 mmHg 47%
    08:00 +21°C° 0 mm 1 mps 574 mmHg 41%
    09:00 +23°C° 0 mm 1 mps 575 mmHg 35%
    10:00 +26°C° 0 mm 1 mps 575 mmHg 29%
    11:00 +28°C° 0 mm 1 mps 576 mmHg 24%
    12:00 +28°C° 0 mm 1 mps 575 mmHg 23%
    13:00 +28°C° 0 mm 2 mps 574 mmHg 22%
    14:00 +27°C° 0 mm 2 mps 573 mmHg 21%
    15:00 +26°C° 0.2 mm 2 mps 572 mmHg 25%
    16:00 +25°C° 0.2 mm 3 mps 572 mmHg 29%
    17:00 +24°C° 0.2 mm 3 mps 571 mmHg 32%
    18:00 +23°C° 0.1 mm 2 mps 572 mmHg 36%
    19:00 +21°C° 0.1 mm 2 mps 572 mmHg 40%
    20:00 +22°C° 0.1 mm 1 mps 572 mmHg 44%
    21:00 +21°C° 0.1 mm 1 mps 572 mmHg 47%
    22:00 +20°C° 0.1 mm 1 mps 572 mmHg 50%
    23:00 +19°C° 0.1 mm 1 mps 572 mmHg 53%

    22 April, Monday

    Time Temperature Precipitation Wind Pressure Humidity
    00:00 +19°C° 0 mm 1 mps 571 mmHg 55%
    01:00 +18°C° 0 mm 1 mps 570 mmHg 57%
    02:00 +16°C° 0 mm 1 mps 570 mmHg 58%
    03:00 +16°C° 0 mm 1 mps 570 mmHg 59%
    04:00 +16°C° 0 mm 1 mps 570 mmHg 60%
    05:00 +15°C° 0 mm 1 mps 570 mmHg 61%
    06:00 +19°C° 0 mm 1 mps 571 mmHg 53%
    07:00 +21°C° 0 mm 1 mps 572 mmHg 46%
    08:00 +21°C° 0 mm 0 mps 574 mmHg 38%
    09:00 +25°C° 0 mm 1 mps 574 mmHg 32%
    10:00 +26°C° 0 mm 1 mps 574 mmHg 26%
    11:00 +28°C° 0 mm 2 mps 575 mmHg 21%
    12:00 +28°C° 0 mm 2 mps 574 mmHg 19%
    13:00 +29°C° 0 mm 2 mps 573 mmHg 18%
    14:00 +29°C° 0 mm 3 mps 573 mmHg 16%
    15:00 +28°C° 0 mm 3 mps 572 mmHg 19%
    16:00 +27°C° 0 mm 3 mps 572 mmHg 22%
    17:00 +26°C° 0 mm 2 mps 571 mmHg 24%
    18:00 +25°C° 0 mm 2 mps 571 mmHg 29%
    19:00 +23°C° 0 mm 2 mps 571 mmHg 33%
    20:00 +22°C° 0 mm 1 mps 571 mmHg 38%
    21:00 +21°C° 0 mm 1 mps 571 mmHg 41%
    22:00 +20°C° 0 mm 1 mps 571 mmHg 44%
    23:00 +19°C° 0 mm 1 mps 570 mmHg 47%

    23 April, Tuesday

    Time Temperature Precipitation Wind Pressure Humidity
    00:00 +19°C° 0 mm 1 mps 570 mmHg 49%
    01:00 +18°C° 0 mm 1 mps 569 mmHg 50%
    02:00 +18°C° 0 mm 1 mps 569 mmHg 51%
    03:00 +16°C° 0 mm 1 mps 569 mmHg 52%
    04:00 +16°C° 0 mm 1 mps 569 mmHg 53%
    05:00 +16°C° 0 mm 1 mps 569 mmHg 54%
    06:00 +19°C° 0 mm 1 mps 570 mmHg 47%
    07:00 +21°C° 0 mm 1 mps 572 mmHg 41%
    08:00 +23°C° 0 mm 1 mps 573 mmHg 35%
    09:00 +25°C° 0 mm 1 mps 573 mmHg 31%
    10:00 +27°C° 0 mm 1 mps 574 mmHg 26%
    11:00 +29°C° 0 mm 1 mps 574 mmHg 22%
    12:00 +29°C° 0.1 mm 1 mps 574 mmHg 22%
    13:00 +28°C° 0.1 mm 1 mps 573 mmHg 22%
    14:00 +28°C° 0.1 mm 1 mps 572 mmHg 22%
    15:00 +27°C° 0.1 mm 2 mps 571 mmHg 27%
    16:00 +25°C° 0.1 mm 2 mps 571 mmHg 33%
    17:00 +24°C° 0.1 mm 3 mps 570 mmHg 38%
    18:00 +22°C° 0.1 mm 3 mps 570 mmHg 40%
    19:00 +23°C° 0.1 mm 2 mps 571 mmHg 43%
    20:00 +22°C° 0.1 mm 1 mps 571 mmHg 46%
    21:00 +21°C° 0.2 mm 1 mps 571 mmHg 49%
    22:00 +21°C° 0.2 mm 1 mps 571 mmHg 52%
    23:00 +20°C° 0.2 mm 1 mps 571 mmHg 56%

    24 April, Wednesday

    Time Temperature Precipitation Wind Pressure Humidity
    00:00 +20°C° 0.1 mm 1 mps 570 mmHg 57%
    01:00 +20°C° 0.1 mm 1 mps 570 mmHg 58%
    02:00 +19°C° 0.1 mm 1 mps 569 mmHg 59%
    03:00 +19°C° 0 mm 1 mps 569 mmHg 59%
    04:00 +18°C° 0 mm 1 mps 569 mmHg 60%
    05:00 +16°C° 0 mm 1 mps 569 mmHg 60%
    06:00 +19°C° 0 mm 1 mps 570 mmHg 53%
    07:00 +21°C° 0 mm 1 mps 571 mmHg 46%
    08:00 +23°C° 0 mm 1 mps 572 mmHg 39%
    09:00 +25°C° 0 mm 1 mps 573 mmHg 34%
    10:00 +27°C° 0 mm 1 mps 574 mmHg 30%
    11:00 +29°C° 0 mm 1 mps 574 mmHg 25%
    12:00 +29°C° 0 mm 1 mps 573 mmHg 26%
    13:00 +28°C° 0 mm 1 mps 572 mmHg 27%
    14:00 +27°C° 0 mm 1 mps 571 mmHg 28%
    15:00 +27°C° 0 mm 1 mps 571 mmHg 28%
    16:00 +26°C° 0 mm 1 mps 570 mmHg 29%
    17:00 +26°C° 0 mm 1 mps 570 mmHg 29%
    18:00 +25°C° 0.2 mm 1 mps 570 mmHg 33%
    19:00 +24°C° 0.2 mm 1 mps 570 mmHg 36%
    20:00 +23°C° 0.2 mm 1 mps 571 mmHg 39%
    21:00 +22°C° 0 mm 1 mps 570 mmHg 41%
    22:00 +20°C° 0 mm 2 mps 570 mmHg 42%
    23:00 +18°C° 0 mm 2 mps 570 mmHg 43%
    Show more